Location: Detroit
(42.3310°N, 83.0460°W)
Time: 22:47:55
(UTC-05:00)

A-11 Canister half - All Passes

Search period start: 07 February 2023 00:00
Search period end: 17 February 2023 00:00
Orbit: 1525 x 1683 km, 47.3° (Epoch: 07 February)

Date Brightness Start Highest point End Pass type
(mag) Time Alt. Az. Time Alt. Az. Time Alt. Az.
07 Feb - 02:21:52 10° SE 02:24:55 12° ESE 02:27:58 10° ESE visible
07 Feb - 04:19:19 10° SSW 04:28:06 49° SE 04:36:54 10° ENE visible
07 Feb - 06:23:26 10° WSW 06:32:45 79° NNW 06:42:13 10° ENE visible
07 Feb - 08:29:13 10° WNW 08:38:30 66° N 08:48:01 10° E daylight
07 Feb - 10:34:33 10° WNW 10:43:59 82° SSW 10:53:42 10° ESE daylight
07 Feb - 12:40:09 10° WNW 12:48:10 32° SW 12:56:23 10° S daylight
08 Feb - 02:01:19 10° SE 02:03:20 11° ESE 02:05:20 10° ESE visible
08 Feb - 03:57:44 10° SSW 04:06:28 46° SE 04:15:10 10° ENE visible
08 Feb - 06:01:43 10° WSW 06:11:03 81° NNW 06:20:29 10° ENE visible
08 Feb - 08:07:30 10° WNW 08:16:46 66° N 08:26:14 10° E daylight
08 Feb - 10:12:52 10° WNW 10:22:17 84° SSW 10:31:58 10° ESE daylight
08 Feb - 12:18:23 10° WNW 12:26:31 33° SW 12:34:51 10° SSE daylight
09 Feb - 03:36:10 10° SSW 03:44:49 44° SE 03:53:25 10° ENE visible
09 Feb - 05:40:00 10° WSW 05:49:20 83° NNW 05:58:46 10° ENE visible
09 Feb - 07:45:46 10° W 07:55:02 65° N 08:04:28 10° E daylight
09 Feb - 09:51:10 10° WNW 10:00:34 87° SSW 10:10:15 10° ESE daylight
09 Feb - 11:56:37 10° WNW 12:04:52 35° SW 12:13:20 10° SSE daylight
10 Feb - 03:14:37 10° SSW 03:23:11 42° SE 03:31:41 10° ENE visible
10 Feb - 05:18:17 10° WSW 05:27:38 85° NNW 05:37:03 10° ENE visible
10 Feb - 07:24:02 10° W 07:33:18 65° N 07:42:43 10° E daylight
10 Feb - 09:29:28 10° WNW 09:38:53 89° SSW 09:48:32 10° ESE daylight
10 Feb - 11:34:53 10° WNW 11:43:13 37° SW 11:51:48 10° SSE daylight
11 Feb - 02:53:04 10° SSW 03:01:32 40° SE 03:09:57 10° ENE visible
11 Feb - 04:56:34 10° WSW 05:05:55 87° NNW 05:15:20 10° ENE visible
11 Feb - 07:02:18 10° W 07:11:34 65° N 07:20:57 10° E visible
11 Feb - 09:07:47 10° WNW 09:17:10 89° NNE 09:26:47 10° ESE daylight
11 Feb - 11:13:07 10° WNW 11:21:34 39° SW 11:30:15 10° SSE daylight
12 Feb - 02:31:32 10° SSW 02:39:54 38° SE 02:48:12 10° ENE visible
12 Feb - 04:34:52 10° WSW 04:44:14 89° NNW 04:53:37 10° ENE visible
12 Feb - 06:40:34 10° W 06:49:49 65° N 06:59:11 10° E visible
12 Feb - 08:46:05 10° WNW 08:55:28 87° NNE 09:05:03 10° ESE daylight
12 Feb - 10:51:23 10° WNW 10:59:55 41° SW 11:08:41 10° SSE daylight
13 Feb - 02:10:01 10° SSW 02:18:16 36° SE 02:26:27 10° ENE visible
13 Feb - 04:13:10 10° WSW 04:22:32 89° SSE 04:31:54 10° ENE visible
13 Feb - 06:18:49 10° W 06:28:05 65° N 06:37:26 10° E visible
13 Feb - 08:24:23 10° WNW 08:33:45 85° NNE 08:43:20 10° ESE daylight
13 Feb - 10:29:39 10° WNW 10:38:17 43° SW 10:47:07 10° SSE daylight
14 Feb - 01:48:29 10° SSW 01:56:38 34° SE 02:04:41 10° ENE visible
14 Feb - 03:51:27 10° WSW 04:00:51 87° SSE 04:10:12 10° ENE visible
14 Feb - 05:57:05 10° W 06:06:21 65° N 06:15:41 10° E visible
14 Feb - 08:02:41 10° WNW 08:12:03 83° NNE 08:21:35 10° ESE daylight
14 Feb - 10:07:55 10° WNW 10:16:37 45° SW 10:25:32 10° SSE daylight
14 Feb - 12:18:30 10° WSW 12:19:49 10° WSW 12:21:07 10° SW daylight
15 Feb - 01:27:00 10° SSW 01:35:00 33° SE 01:42:55 10° ENE visible
15 Feb - 03:29:46 10° WSW 03:39:09 84° SSE 03:48:30 10° ENE visible
15 Feb - 05:35:21 10° W 05:44:37 66° N 05:53:56 10° ENE visible
15 Feb - 07:40:59 10° WNW 07:50:20 81° NNE 07:59:51 10° ESE daylight
15 Feb - 09:46:12 10° WNW 09:54:58 47° SW 10:03:57 10° SSE daylight
15 Feb - 11:55:34 10° WSW 11:58:12 11° WSW 12:00:53 10° SW daylight
16 Feb - 01:05:30 10° S 01:13:23 31° SE 01:21:08 10° ENE visible
16 Feb - 03:08:04 10° WSW 03:17:28 82° SSE 03:26:47 10° ENE visible
16 Feb - 05:13:37 10° W 05:22:53 66° N 05:32:12 10° ENE visible
16 Feb - 07:19:16 10° WNW 07:28:37 79° NNE 07:38:06 10° ESE daylight
16 Feb - 09:24:29 10° WNW 09:33:19 49° SW 09:42:21 10° SSE daylight
16 Feb - 11:33:07 10° W 11:36:36 12° WSW 11:40:08 10° SW daylight
